Regional Weather Roundup
Issued by NWS

Home | Current Version | Previous Version | Text Only | Print | Product List | Glossary Off
Versions: 1 2 3 4 5 6 7 8 9 10 11 12 13 14 15 16 17 18 19 20 21 22 23 24 25 26 27 28 29 30 31 32 33 34 35 36 37 38 39 40 41 42 43 44 45 46 47 48 49 50

000
ASUS43 KIND 252209
RWRIN

WEATHER ROUNDUP FOR INDIANA
NATIONAL WEATHER SERVICE INDIANAPOLIS IN
600 PM EDT MON MAY 25 2015

NOTE: "FAIR" INDICATES FEW OR NO CLOUDS BELOW 12,000 FEET WITH NO
SIGNIFICANT WEATHER AND/OR OBSTRUCTIONS TO VISIBILITY.

* - STATION DOES NOT REPORT WEATHER SUCH AS PRECIPITATION OR FOG.

+ - STATION NOT QUALITY CONTROLLED BY THE NATIONAL WEATHER SERVICE.
    USE DATA WITH CAUTION...ESPECIALLY DEWPOINT AND RELATIVE
    HUMIDITY OBSERVATIONS.

INZ001>003-010>013-019-020-252300-
NORTHWEST INDIANA

CITY           SKY/WX    TMP DP  RH WIND       PRES   REMARKS
GARY /AIRPORT/ MOSUNNY   81  59  47 SW14G26   29.95R
KNOX *+        PTSUNNY   81  54  39 SW22G28   29.95S
LA PORTE +     PTSUNNY   81  58  46 SW20      29.96S
MICHIGAN CITY+ PTSUNNY   77  55  47 SW17      29.96R
MONTICELLO +   CLOUDY    79  64  60 SW16G22   29.97S
RENSSELAER +   CLOUDY    82  55  39 SW18      29.97R
VALPARAISO     PTSUNNY   80  58  46 SW16G28   29.96R

$$

LMZ046-743>745-252300-
SOUTHERN LAKE MICHIGAN

STATION/POSITION TIME  TEMP    WIND        PRES    WAVE
                       AIR SEA DIR/SP/G            HT
                 (UTC) (F)     (DEG/KT/KT) (MB)    (FT)
BURNS HARBOR     2200   77     240/ 14/ 21 1014.2S
MICHIGAN CITY    2200   71     220/ 17/ 18   N/A
5NW MICH CITY    2200   61 52  250/  8/ 10   N/A     2

$$

INZ004-005-014>016-021>024-252300-
NORTH CENTRAL INDIANA

CITY           SKY/WX    TMP DP  RH WIND       PRES   REMARKS
ELKHART        SUNNY     81  57  44 SW17G25   29.96R
GOSHEN         PTSUNNY   79  58  48 SW24G30   29.95S
LOGANSPORT +   CLOUDY    79  55  44 SW18G28   29.99S
PERU/GRISSOM   SUNNY     79  63  58 SW21G30   29.99R
ROCHESTER +    PTSUNNY   81  59  47 SW20G26   29.98S
SOUTH BEND     PTSUNNY   81  59  47 SW16G23   29.95R
WARSAW +       PTSUNNY   79  59  50 SW14G23   29.97R

$$

INZ006>009-017-018-025>027-252300-
NORTHEAST INDIANA

CITY           SKY/WX    TMP DP  RH WIND       PRES   REMARKS
ANGOLA *+      MOSUNNY   79  73  83 SW20      29.96R
AUBURN +       MOSUNNY   77  61  57 SW13G21   29.99S
FORT WAYNE     PTSUNNY   78  63  59 SW22G30   30.00S
HUNTINGTON +   PTSUNNY   77  62  58 SW9G25    30.00R

$$

INZ028-029-035-036-043>045-051>053-252300-
WEST CENTRAL INDIANA

CITY           SKY/WX    TMP DP  RH WIND       PRES   REMARKS
CRAWFORDSVL +  CLOUDY    76  56  49 S20G26    30.03R
GREENCASTLE +  CLOUDY    73  61  64 S8G16     30.05S
LAFAYETTE      CLOUDY    78  62  57 SW14G25   29.98S
TERRE HAUTE    CLOUDY    78  64  61 S17G24    30.03F

$$

INZ030>032-037>040-046>048-054>057-064-065-252300-
CENTRAL INDIANA

CITY           SKY/WX    TMP DP  RH WIND       PRES   REMARKS
CP ATTERBURY + CLOUDY    75  64  69 S9        30.07F
COLUMBUS       CLOUDY    75  63  64 S18       30.07S
FISHERS *+     CLOUDY    75  66  73 S16G22    30.04F
FRANKFORT +    CLOUDY    80  62  55 S16G30    30.03S
GREENWOOD *+   CLOUDY    77  59  53 SW15G23   30.07R
INDIANAPOLIS   CLOUDY    77  63  61 S17       30.03S
-EAGLE CREEK   CLOUDY    77  64  64 S8        30.04S
KOKOMO *+      CLOUDY    79  63  57 SW17G24   30.00S
MARION +       PTSUNNY   80  59  50 SW22G31   30.02S
MT COMFORT *+  CLOUDY    79  52  38 SW15      30.05F
SHELBYVILLE    CLOUDY    79  64  60 SW16      30.06R
ZIONSVILLE +   CLOUDY    79  61  53 S17G29    30.04S

$$

INZ033-034-041-042-049-050-058-059-252300-
EAST CENTRAL INDIANA

CITY           SKY/WX    TMP DP  RH WIND       PRES   REMARKS
MUNCIE         PTSUNNY   78  62  57 SW10G21   30.04S

$$

INZ060-061-067>069-081>083-085>088-252300-
SOUTHWEST INDIANA

CITY           SKY/WX    TMP DP  RH WIND       PRES   REMARKS
EVANSVILLE     CLOUDY    74  67  78 S8        30.07F
HUNTINGBURG *+ CLOUDY    72  64  78 S13       30.09F
WASHINGTON +   CLOUDY    75  65  71 S17G24    30.05S

$$

INZ062-063-066-070>080-084-089>092-252300-
SOUTH CENTRAL AND SOUTHEAST INDIANA

CITY           SKY/WX    TMP DP  RH WIND       PRES   REMARKS
BLOOMINGTON    CLOUDY    75  65  70 SW15      30.07R
MADISON *+     CLOUDY    73  63  68 S12       30.13F
NORTH VERNON + CLOUDY    73  64  73 S13G20    30.10F
SEYMOUR +      CLOUDY    77  63  61 S17       30.08F

$$




USA.gov is the U.S. government's official web portal to all federal, state and local government web resources and services.